This is the latest recevied weather packets stored in our database for station/object N3MFL. If no packets are shown the sender has not sent any weather packets the latest 10 day(s).
| Time | Temp. | Humidity | Pressure | Rain* | Wind** | Luminosity | Snow |
|---|---|---|---|---|---|---|---|
| 1777423800 | 7.78° C | 73% | 1020.5 hPa | 0 mm | - | 0 W/m² | - |
| 1777423496 | 7.78° C | 72% | 1020.7 hPa | 0 mm | - | 0 W/m² | - |
| 1777423191 | 7.78° C | 72% | 1020.6 hPa | 0 mm | - | 0 W/m² | - |
| 1777422885 | 7.78° C | 71% | 1020.6 hPa | 0 mm | - | 0 W/m² | - |
| 1777422581 | 7.78° C | 70% | 1020.6 hPa | 0 mm | - | 0 W/m² | - |
| 1777422277 | 8.33° C | 70% | 1020.4 hPa | 0 mm | - | 0 W/m² | - |
| 1777421976 | 8.33° C | 69% | 1020.3 hPa | 0 mm | - | 0 W/m² | - |
| 1777421672 | 8.33° C | 68% | 1020.5 hPa | 0 mm | - | 0 W/m² | - |
| 1777421366 | 8.33° C | 67% | 1020.5 hPa | 0 mm | - | 0 W/m² | - |
| 1777421063 | 8.33° C | 66% | 1020.5 hPa | 0 mm | - | 0 W/m² | - |
| 1777420760 | 8.89° C | 66% | 1020.2 hPa | 0 mm | - | 0 W/m² | - |
| 1777420456 | 8.89° C | 65% | 1020.6 hPa | 0 mm | - | 0 W/m² | - |
| 1777420153 | 9.44° C | 65% | 1020.4 hPa | 0 mm | - | 1 W/m² | - |
| 1777419849 | 9.44° C | 65% | 1020.2 hPa | 0 mm | - | 2 W/m² | - |
| 1777419546 | 9.44° C | 64% | 1020.1 hPa | 0 mm | - | 3 W/m² | - |
| 1777419245 | 10° C | 64% | 1020.2 hPa | 0 mm | - | 5 W/m² | - |
| 1777418942 | 10° C | 63% | 1020.2 hPa | 0 mm | - | 7 W/m² | - |
| 1777418637 | 10° C | 62% | 1020 hPa | 0 mm | - | 9 W/m² | - |
| 1777418334 | 10.56° C | 62% | 1020.1 hPa | 0 mm | - | 11 W/m² | - |
| 1777418030 | 10.56° C | 61% | 1020.1 hPa | 0 mm | - | 15 W/m² | - |
| 1777417725 | 10.56° C | 61% | 1019.9 hPa | 0 mm | - | 21 W/m² | - |
| 1777417421 | 10.56° C | 61% | 1020.2 hPa | 0 mm | - | 26 W/m² | - |
| 1777417118 | 11.11° C | 59% | 1020.2 hPa | 0 mm | - | 31 W/m² | - |
| 1777416813 | 11.67° C | 55% | 1020.3 hPa | 0 mm | - | 36 W/m² | - |
| 1777416509 | 11.67° C | 54% | 1020.2 hPa | 0 mm | - | 41 W/m² | - |
* Rain latest hour (hover to see other rain measurements)
** Current wind speed in m/s (hover to see current wind gust speed)